QPF
0.00 0.00 0.00 0.00 0.00 0.00 0.00 0.00 0.00 0.00 0.00 0.00 0.00 0.00 0.00 0.00 0.00 0.00 0.00 0.00 0.00 0.00 0.00 0.00 0.00 0.00 0.00 0.00 0.00 0.00 0.00 0.00 0.00 0.00 0.00 0.00 0.00 0.00 0.00 0.00 0.00 0.00 0.00 0.00 0.00 0.00 0.00
0.00 0.00 0.00 0.00 0.00 0.00 0.00 0.00 0.00 0.00 0.00 0.00 0.00 0.00 0.00 0.00 0.00 0.00 0.00 0.00 0.00 0.00 0.00 0.00 0.00 0.00 0.00 0.00 0.00 0.00 0.00 0.00 0.00 0.00 0.00 0.00 0.00 0.00 0.00 0.00 0.00 0.00 0.00 0.00 0.00 0.00 0.00
0.00 0.00 0.00 0.00 0.00 0.00 0.00 0.00 0.00 0.00 0.00 0.00 0.00 0.00 0.00 0.00 0.00 0.00 0.00 0.00 0.00 0.00 0.00 0.00 0.00 0.00 0.00 0.00 0.00 0.00 0.00 0.00 0.00 0.00 0.00 0.00 0.00 0.00 0.00 0.00 0.00 0.00 0.00 0.00 0.00 0.00 0.00
0.00 0.00 0.00 0.00 0.00 0.00 0.00 0.00 0.00 0.00 0.00 0.00 0.00 0.00 0.00 0.00 0.00 0.00 0.00 0.00 0.00 0.00 0.00 0.00 0.00 0.00 0.00 0.00 0.00 0.00 0.00 0.00 0.00 0.00 0.00 0.00 0.00 0.00 0.00 0.00 0.00 0.00 0.00 0.00 0.00 0.00 0.00
0.00 0.00 0.00 0.00 0.00 0.00 0.00 0.00 0.00 0.00 0.00 0.00 0.00 0.00 0.00 0.00 0.00 0.00 0.00 0.00 0.00 0.00 0.00 0.00 0.00 0.00 0.00 0.00 0.00 0.00 0.00 0.00 0.00 0.00 0.00 0.00 0.01 0.01 0.00 0.00 0.00 0.00 0.00 0.00 0.00 0.00 0.00
0.00 0.00 0.00 0.00 0.00 0.00 0.00 0.00 0.00 0.00 0.00 0.00 0.00 0.00 0.00 0.00 0.00 0.00 0.00 0.00 0.00 0.00 0.00 0.00 0.00 0.00 0.00 0.00 0.00 0.00 0.00 0.00 0.00 0.00 0.00 0.01 0.01 0.01 0.01 0.01 0.00 0.00 0.00 0.00 0.00 0.00 0.00
0.00 0.00 0.00 0.00 0.00 0.00 0.00 0.00 0.00 0.00 0.00 0.00 0.00 0.00 0.00 0.00 0.00 0.00 0.00 0.00 0.00 0.00 0.00 0.00 0.00 0.00 0.00 0.00 0.00 0.00 0.00 0.00 0.00 0.00 0.00 0.01 0.02 0.02 0.01 0.02 0.04 0.05 0.03 0.01 0.00 0.00 0.01
0.00 0.00 0.00 0.00 0.00 0.00 0.00 0.00 0.00 0.00 0.00 0.00 0.00 0.00 0.00 0.00 0.00 0.00 0.00 0.00 0.00 0.00 0.00 0.00 0.00 0.00 0.00 0.00 0.00 0.00 0.00 0.00 0.00 0.00 0.00 0.00 0.00 0.00 0.01 0.03 0.06 0.08 0.09 0.05 0.02 0.00 0.01
0.00 0.00 0.00 0.00 0.00 0.00 0.00 0.00 0.00 0.00 0.00 0.00 0.00 0.00 0.00 0.00 0.00 0.00 0.00 0.00 0.00 0.00 0.00 0.00 0.00 0.00 0.00 0.00 0.00 0.00 0.00 0.00 0.00 0.00 0.00 0.00 0.00 0.00 0.00 0.01 0.02 0.01 0.05 0.06 0.08 0.01 0.01
0.00 0.00 0.00 0.00 0.00 0.00 0.00 0.00 0.00 0.00 0.00 0.00 0.00 0.00 0.00 0.00 0.00 0.00 0.00 0.00 0.00 0.00 0.00 0.00 0.00 0.00 0.00 0.00 0.00 0.00 0.00 0.00 0.00 0.00 0.00 0.00 0.00 0.00 0.00 0.00 0.00 0.00 0.01 0.02 0.02 0.03 0.04
0.00 0.00 0.00 0.00 0.00 0.00 0.00 0.00 0.00 0.00 0.00 0.00 0.00 0.00 0.00 0.00 0.00 0.00 0.00 0.00 0.00 0.00 0.00 0.00 0.00 0.00 0.00 0.00 0.00 0.00 0.00 0.00 0.00 0.00 0.00 0.00 0.00 0.00 0.00 0.00 0.00 0.00 0.00 0.00 0.00 0.00 0.00
0.00 0.00 0.00 0.00 0.00 0.00 0.00 0.00 0.00 0.00 0.00 0.00 0.00 0.00 0.00 0.00 0.00 0.00 0.00 0.00 0.00 0.00 0.00 0.00 0.00 0.00 0.00 0.00 0.00 0.00 0.00 0.00 0.00 0.00 0.00 0.00 0.00 0.00 0.00 0.00 0.00 0.00 0.00 0.00 0.00 0.00 0.00
0.00 0.00 0.00 0.00 0.00 0.00 0.00 0.00 0.00 0.00 0.00 0.00 0.00 0.00 0.00 0.00 0.00 0.00 0.00 0.00 0.00 0.00 0.00 0.00 0.00 0.00 0.00 0.00 0.00 0.00 0.00 0.00 0.00 0.01 0.00 0.00 0.00 0.00 0.00 0.00 0.00 0.00 0.00 0.01 0.00 0.00 0.00
0.00 0.00 0.00 0.00 0.00 0.00 0.00 0.00 0.00 0.00 0.00 0.00 0.00 0.00 0.00 0.00 0.00 0.00 0.00 0.00 0.00 0.00 0.00 0.00 0.00 0.00 0.00 0.00 0.00 0.00 0.00 0.00 0.01 0.01 0.01 0.01 0.00 0.00 0.00 0.00 0.00 0.00 0.02 0.02 0.04 0.00 0.01
0.00 0.00 0.00 0.00 0.00 0.00 0.00 0.00 0.00 0.00 0.00 0.00 0.00 0.00 0.00 0.00 0.00 0.00 0.00 0.00 0.00 0.00 0.00 0.00 0.00 0.00 0.00 0.00 0.00 0.00 0.00 0.00 0.01 0.03 0.03 0.02 0.01 0.00 0.00 0.00 0.00 0.01 0.01 0.01 0.03 0.01 0.01
0.00 0.00 0.00 0.00 0.00 0.00 0.00 0.00 0.00 0.00 0.00 0.00 0.00 0.00 0.00 0.00 0.00 0.00 0.00 0.00 0.00 0.00 0.00 0.00 0.00 0.00 0.00 0.00 0.00 0.00 0.00 0.00 0.01 0.01 0.01 0.02 0.02 0.00 0.00 0.00 0.02 0.02 0.02 0.02 0.06 0.03 0.04
0.00 0.00 0.00 0.00 0.00 0.00 0.00 0.00 0.00 0.00 0.00 0.00 0.00 0.00 0.00 0.00 0.00 0.00 0.00 0.00 0.00 0.00 0.00 0.00 0.00 0.00 0.00 0.00 0.00 0.00 0.00 0.00 0.00 0.00 0.00 0.00 0.02 0.00 0.00 0.00 0.00 0.02 0.02 0.00 0.01 0.01 0.03
0.00 0.00 0.00 0.00 0.00 0.00 0.00 0.00 0.00 0.00 0.00 0.00 0.00 0.00 0.00 0.00 0.00 0.00 0.00 0.00 0.00 0.00 0.00 0.00 0.00 0.00 0.01 0.01 0.01 0.00 0.00 0.01 0.00 0.00 0.00 0.00 0.02 0.00 0.01 0.00 0.00 0.00 0.00 0.00 0.01 0.01 0.02
0.00 0.00 0.00 0.00 0.00 0.00 0.00 0.00 0.00 0.00 0.00 0.00 0.00 0.00 0.00 0.00 0.00 0.00 0.00 0.00 0.00 0.00 0.00 0.00 0.00 0.01 0.01 0.01 0.04 0.01 0.00 0.00 0.00 0.00 0.00 0.09 0.05 0.03 0.03 0.04 0.01 0.00 0.00 0.00 0.00 0.01 0.01
0.00 0.00 0.00 0.00 0.00 0.00 0.00 0.00 0.00 0.00 0.00 0.00 0.00 0.00 0.00 0.00 0.00 0.00 0.00 0.00 0.00 0.00 0.00 0.00 0.00 0.00 0.00 0.00 0.02 0.01 0.00 0.00 0.00 0.00 0.00 0.04 0.05 0.02 0.02 0.01 0.01 0.00 0.00 0.00 0.00 0.01 0.01
0.00 0.00 0.00 0.00 0.00 0.00 0.00 0.00 0.00 0.00 0.00 0.00 0.00 0.00 0.00 0.00 0.00 0.00 0.00 0.00 0.00 0.00 0.00 0.00 0.00 0.00 0.00 0.00 0.00 0.00 0.00 0.00 0.00 0.00 0.00 0.01 0.04 0.00 0.00 0.01 0.00 0.00 0.00 0.00 0.00 0.00 0.01
0.00 0.00 0.00 0.00 0.00 0.00 0.00 0.00 0.00 0.00 0.00 0.00 0.00 0.00 0.00 0.00 0.00 0.00 0.00 0.00 0.00 0.00 0.00 0.00 0.00 0.00 0.00 0.00 0.00 0.00 0.01 0.01 0.00 0.00 0.00 0.00 0.01 0.00 0.00 0.00 0.00 0.00 0.00 0.00 0.00 0.00 0.00
0.00 0.00 0.00 0.00 0.00 0.00 0.00 0.00 0.00 0.00 0.00 0.00 0.00 0.00 0.00 0.00 0.00 0.00 0.00 0.00 0.00 0.00 0.00 0.00 0.00 0.00 0.00 0.00 0.00 0.00 0.01 0.00 0.00 0.00 0.00 0.00 0.00 0.01 0.01 0.00 0.01 0.01 0.00 0.00 0.00 0.00 0.00
0.00 0.00 0.00 0.00 0.00 0.00 0.00 0.00 0.00 0.00 0.00 0.00 0.00 0.00 0.00 0.00 0.00 0.00 0.00 0.00 0.00 0.00 0.00 0.00 0.00 0.00 0.00 0.00 0.00 0.00 0.00 0.00 0.00 0.00 0.00 0.00 0.00 0.01 0.01 0.01 0.01 0.00 0.00 0.00 0.00 0.00 0.00
0.00 0.00 0.00 0.00 0.00 0.00 0.00 0.00 0.00 0.00 0.00 0.00 0.00 0.00 0.00 0.00 0.00 0.00 0.00 0.00 0.00 0.00 0.00 0.00 0.00 0.00 0.00 0.00 0.01 0.01 0.01 0.00 0.00 0.00 0.00 0.00 0.00 0.00 0.01 0.01 0.00 0.00 0.00 0.00 0.00 0.00 0.00
0.00 0.00 0.00 0.00 0.00 0.00 0.00 0.00 0.00 0.00 0.00 0.00 0.00 0.00 0.00 0.00 0.00 0.00 0.00 0.00 0.00 0.00 0.00 0.00 0.00 0.00 0.00 0.00 0.00 0.00 0.00 0.00 0.00 0.00 0.00 0.00 0.00 0.00 0.00 0.00 0.00 0.00 0.00 0.00 0.00 0.00 0.00
0.00 0.00 0.00 0.00 0.00 0.00 0.00 0.00 0.00 0.00 0.00 0.00 0.00 0.00 0.00 0.00 0.00 0.00 0.00 0.00 0.00 0.00 0.00 0.00 0.00 0.00 0.00 0.00 0.00 0.00 0.00 0.00 0.00 0.00 0.00 0.00 0.00 0.00 0.00 0.00 0.00 0.00 0.00 0.00 0.00 0.00 0.00
0.00 0.00 0.00 0.00 0.00 0.00 0.00 0.00 0.00 0.00 0.00 0.00 0.00 0.00 0.00 0.00 0.00 0.00 0.00 0.00 0.00 0.00 0.00 0.00 0.00 0.00 0.00 0.00 0.00 0.00 0.00 0.00 0.00 0.00 0.00 0.00 0.00 0.00 0.00 0.00 0.00 0.00 0.00 0.00 0.00 0.00 0.00
0.00 0.00 0.00 0.00 0.00 0.00 0.00 0.00 0.00 0.00 0.00 0.00 0.00 0.00 0.00 0.00 0.00 0.00 0.00 0.00 0.00 0.00 0.00 0.00 0.00 0.00 0.00 0.00 0.00 0.00 0.00 0.00 0.00 0.00 0.00 0.00 0.00 0.00 0.00 0.00 0.00 0.00 0.00 0.00 0.00 0.00 0.00
MSLP
1019.56 1019.48 1019.26 1018.92 1018.58 1018.22 1017.85 1017.47 1017.15 1016.76 1016.27 1015.75 1015.24 1014.74 1014.20 1013.68 1012.97 1012.34 1011.72 1011.10 1010.43 1009.80 1009.49 1009.48 1009.72 1009.98 1009.91 1008.92 1008.35 1008.48 1008.19 1007.71 1006.81 1006.40 1006.56 1006.57 1006.08 1005.72 1004.80 1003.99 1003.99 1002.77 1002.57 1002.26 1001.72 1001.34 1001.08
1019.57 1019.45 1019.27 1018.99 1018.65 1018.30 1017.94 1017.54 1017.17 1016.76 1016.30 1015.82 1015.28 1014.77 1014.20 1013.53 1012.82 1012.13 1011.45 1010.72 1010.19 1009.70 1009.19 1009.06 1009.36 1009.78 1009.28 1008.60 1009.14 1008.55 1008.11 1007.66 1006.91 1006.70 1006.29 1006.10 1005.51 1005.04 1004.34 1003.59 1003.30 1002.34 1002.00 1001.52 1001.39 1001.36 1001.33
1019.65 1019.53 1019.39 1019.09 1018.66 1018.32 1017.98 1017.58 1017.21 1016.82 1016.36 1015.79 1015.29 1014.83 1014.21 1013.57 1012.78 1011.96 1011.29 1010.61 1010.13 1009.69 1009.20 1009.21 1009.38 1009.19 1008.54 1009.47 1008.92 1008.69 1008.15 1007.61 1007.18 1006.85 1006.34 1006.03 1005.82 1005.57 1004.60 1004.33 1003.69 1003.46 1002.39 1001.79 1001.25 1001.30 1000.99
1019.72 1019.62 1019.42 1019.15 1018.77 1018.31 1018.00 1017.69 1017.28 1016.86 1016.39 1015.88 1015.29 1014.75 1014.15 1013.54 1012.76 1011.95 1011.37 1010.76 1010.35 1010.01 1009.71 1009.62 1009.57 1009.02 1008.76 1009.42 1009.17 1008.79 1008.01 1007.32 1006.95 1006.90 1006.61 1006.27 1006.14 1005.88 1005.37 1005.04 1004.15 1003.85 1002.93 1001.33 1000.41 1000.01 1000.14
1019.86 1019.75 1019.51 1019.24 1018.82 1018.39 1018.10 1017.74 1017.35 1016.91 1016.37 1015.90 1015.23 1014.64 1014.04 1013.39 1012.65 1011.85 1011.32 1010.92 1010.62 1010.31 1010.05 1009.86 1009.32 1008.77 1009.11 1009.29 1009.28 1009.23 1008.64 1007.74 1007.19 1006.58 1006.53 1006.52 1006.52 1006.34 1006.22 1005.71 1005.00 1004.28 1001.95 1001.19 999.91 999.80 1000.02
1019.99 1019.83 1019.65 1019.31 1018.92 1018.56 1018.21 1017.86 1017.46 1016.96 1016.44 1015.84 1015.11 1014.47 1013.95 1013.36 1012.60 1011.93 1011.05 1010.95 1010.73 1010.09 1009.92 1009.45 1009.20 1009.09 1010.06 1010.26 1010.14 1009.67 1008.91 1007.93 1007.24 1006.71 1006.30 1006.54 1006.67 1006.59 1006.54 1006.52 1004.53 1004.04 1002.73 1001.58 1000.19 1000.02 999.93
1020.05 1019.89 1019.75 1019.35 1019.03 1018.69 1018.40 1018.01 1017.55 1017.00 1016.46 1015.89 1015.14 1014.56 1013.85 1013.30 1012.78 1012.23 1010.85 1010.39 1011.09 1010.27 1010.78 1011.46 1011.66 1011.23 1011.24 1011.14 1010.27 1010.20 1009.49 1007.79 1007.42 1006.59 1006.17 1005.99 1006.65 1006.53 1006.86 1006.91 1006.33 1006.00 1005.17 1004.00 1002.27 1001.69 1002.29
1020.13 1019.96 1019.73 1019.49 1019.13 1018.87 1018.57 1018.15 1017.55 1017.09 1016.56 1015.97 1015.24 1014.56 1013.85 1013.44 1013.13 1012.59 1011.81 1012.23 1013.92 1014.30 1012.73 1012.38 1012.04 1011.79 1011.62 1011.28 1010.50 1010.56 1010.32 1009.21 1008.44 1007.57 1007.03 1006.57 1005.90 1006.49 1007.55 1007.81 1007.77 1007.14 1006.09 1005.18 1004.40 1003.75 1003.00
1020.19 1019.97 1019.81 1019.57 1019.29 1018.98 1018.57 1018.20 1017.75 1017.14 1016.67 1016.00 1015.29 1014.58 1013.82 1013.47 1013.10 1012.90 1013.28 1014.33 1014.50 1014.29 1012.96 1012.75 1012.49 1012.43 1012.19 1011.77 1011.42 1011.30 1011.18 1010.30 1009.28 1008.55 1008.02 1007.76 1007.03 1007.23 1007.61 1007.70 1007.64 1007.17 1006.75 1006.51 1006.40 1005.76 1004.04
1020.28 1020.05 1019.87 1019.67 1019.43 1019.01 1018.68 1018.27 1017.77 1017.25 1016.71 1016.09 1015.39 1014.69 1014.00 1013.13 1013.40 1013.24 1013.64 1014.65 1014.48 1014.26 1012.78 1013.26 1012.83 1013.36 1012.88 1011.57 1011.54 1011.79 1011.79 1011.59 1010.28 1009.77 1009.40 1008.45 1008.32 1008.32 1008.11 1008.05 1008.74 1007.91 1007.25 1007.18 1006.78 1006.53 1005.15
1020.35 1020.11 1019.95 1019.69 1019.47 1019.08 1018.75 1018.32 1017.85 1017.35 1016.75 1016.20 1015.49 1014.78 1014.37 1013.69 1013.87 1013.65 1015.03 1014.80 1014.54 1014.36 1013.39 1014.03 1013.66 1013.89 1013.11 1013.35 1013.28 1012.69 1012.11 1011.83 1011.16 1010.92 1010.48 1009.47 1009.14 1008.97 1008.49 1008.68 1008.91 1008.29 1007.84 1007.48 1006.99 1006.68 1006.69
1020.33 1020.16 1020.02 1019.80 1019.49 1019.18 1018.79 1018.40 1017.87 1017.36 1016.81 1016.17 1015.49 1015.03 1014.26 1014.10 1013.65 1014.89 1014.88 1014.73 1014.55 1013.76 1013.94 1014.43 1014.42 1014.07 1013.53 1013.58 1013.30 1013.20 1012.49 1011.95 1012.04 1011.69 1010.65 1010.15 1009.74 1009.54 1009.38 1009.44 1008.83 1008.27 1007.81 1007.02 1006.42 1006.32 1006.57
1020.31 1020.27 1020.09 1019.88 1019.56 1019.23 1018.91 1018.27 1017.85 1017.42 1016.85 1016.31 1015.72 1015.48 1014.91 1014.67 1014.86 1014.78 1014.88 1014.18 1013.47 1013.47 1014.93 1015.44 1015.38 1014.92 1014.38 1014.31 1014.09 1014.03 1013.28 1012.60 1013.27 1013.01 1012.14 1011.04 1010.12 1009.65 1009.89 1009.73 1008.96 1008.62 1008.40 1007.13 1005.84 1005.43 1006.78
1020.37 1020.27 1020.23 1019.98 1019.60 1019.27 1018.78 1018.37 1017.75 1017.28 1016.86 1016.40 1015.85 1015.56 1015.28 1014.96 1014.94 1014.72 1014.21 1013.17 1013.85 1015.83 1016.30 1016.66 1016.42 1015.83 1015.48 1015.35 1015.18 1014.90 1014.38 1013.76 1014.17 1014.88 1014.02 1012.79 1011.32 1010.51 1010.57 1010.43 1009.90 1009.36 1009.04 1008.86 1007.98 1007.32 1008.88
1020.42 1020.41 1020.33 1020.08 1019.76 1019.31 1018.89 1018.41 1017.78 1017.34 1016.88 1016.41 1015.94 1015.42 1015.24 1015.12 1014.67 1014.28 1013.36 1013.80 1016.49 1017.48 1018.03 1017.61 1016.68 1016.38 1016.28 1016.38 1016.30 1015.59 1015.12 1015.01 1015.60 1016.15 1016.21 1014.58 1012.87 1012.22 1011.02 1010.68 1010.65 1009.67 1009.60 1009.93 1009.70 1009.58 1010.35
1020.49 1020.61 1020.33 1020.25 1019.93 1019.48 1019.03 1018.46 1018.08 1017.42 1016.74 1016.40 1015.80 1015.37 1015.62 1015.69 1014.76 1013.23 1013.59 1016.32 1017.76 1018.61 1018.70 1018.49 1017.56 1017.70 1017.16 1017.02 1016.87 1016.26 1015.80 1015.82 1016.54 1016.89 1017.28 1016.19 1014.67 1012.67 1011.40 1010.91 1010.66 1011.04 1011.45 1011.17 1011.27 1011.25 1012.40
1020.61 1020.55 1020.44 1020.45 1020.05 1019.57 1019.17 1018.74 1018.20 1017.39 1016.89 1016.55 1015.86 1015.32 1016.61 1016.12 1014.86 1014.52 1015.66 1017.89 1018.86 1019.33 1019.38 1019.14 1018.83 1018.56 1018.27 1017.86 1017.75 1017.12 1016.79 1016.91 1017.59 1017.56 1017.69 1017.00 1015.77 1013.58 1012.41 1013.00 1012.93 1012.59 1013.86 1014.47 1014.17 1013.57 1014.36
1020.67 1020.41 1020.60 1020.53 1020.09 1019.62 1019.37 1018.95 1018.26 1017.62 1017.10 1016.48 1015.98 1016.21 1017.31 1016.26 1015.83 1016.81 1018.27 1019.46 1020.21 1019.77 1019.70 1019.60 1019.58 1019.26 1019.07 1019.03 1018.58 1017.88 1017.49 1017.82 1018.72 1018.72 1018.03 1017.38 1016.90 1015.28 1014.32 1015.75 1016.44 1017.07 1018.44 1018.22 1017.44 1015.97 1016.78
1020.52 1020.45 1020.68 1020.53 1020.17 1019.86 1019.48 1019.13 1018.60 1018.18 1017.92 1017.13 1016.88 1017.64 1017.76 1016.30 1016.88 1018.47 1019.80 1020.24 1020.50 1020.54 1020.30 1020.24 1020.28 1020.50 1020.79 1020.20 1019.71 1018.91 1018.58 1018.71 1019.34 1019.53 1019.13 1018.91 1017.64 1016.80 1016.84 1017.52 1017.53 1019.70 1021.14 1021.21 1020.65 1020.41 1019.93
1020.45 1020.54 1020.56 1020.45 1020.29 1020.04 1019.73 1019.42 1019.04 1018.56 1018.31 1017.83 1017.52 1017.90 1018.51 1018.55 1019.45 1019.74 1020.49 1021.11 1021.08 1021.30 1020.88 1021.24 1021.29 1021.74 1021.84 1021.39 1021.12 1020.51 1020.03 1020.16 1020.64 1020.40 1020.57 1020.04 1019.61 1019.95 1020.41 1021.34 1021.98 1022.83 1023.71 1023.53 1022.63 1022.21 1023.14
1020.50 1020.59 1020.51 1020.46 1020.30 1020.18 1019.97 1019.67 1019.29 1018.85 1018.64 1018.30 1018.45 1019.67 1020.26 1020.10 1020.83 1021.27 1021.63 1022.34 1022.49 1022.34 1022.05 1022.01 1022.14 1023.00 1023.35 1023.10 1022.64 1021.92 1022.28 1022.35 1021.69 1021.98 1021.66 1021.83 1021.11 1022.04 1023.03 1023.96 1024.54 1025.63 1026.36 1026.53 1026.16 1026.36 1026.30
1020.38 1020.51 1020.50 1020.45 1020.37 1020.24 1020.13 1019.85 1019.43 1019.08 1018.90 1018.72 1019.33 1019.84 1020.87 1021.61 1022.09 1022.34 1023.11 1023.62 1023.76 1023.70 1023.50 1023.36 1023.91 1024.46 1024.17 1024.66 1025.35 1024.85 1024.66 1024.57 1025.02 1023.87 1023.47 1023.57 1022.74 1023.26 1023.99 1025.23 1026.22 1027.25 1028.33 1028.70 1029.19 1029.42 1029.59
1020.26 1020.37 1020.47 1020.43 1020.33 1020.37 1020.29 1019.98 1019.71 1019.42 1019.06 1019.13 1020.30 1020.53 1020.73 1022.54 1022.95 1023.43 1024.36 1024.96 1024.76 1024.94 1024.62 1025.07 1025.39 1025.39 1025.25 1025.95 1026.12 1025.90 1025.72 1026.46 1027.10 1026.81 1026.10 1025.52 1024.81 1023.67 1023.18 1025.35 1026.50 1028.12 1030.51 1030.96 1031.20 1031.95 1032.04
1020.11 1020.38 1020.50 1020.46 1020.48 1020.52 1020.41 1020.18 1020.07 1019.73 1019.26 1019.15 1020.05 1020.53 1021.49 1023.20 1023.74 1024.65 1025.48 1025.90 1025.96 1025.94 1026.11 1026.03 1025.85 1026.09 1026.21 1026.54 1026.54 1026.69 1026.99 1027.31 1027.67 1027.97 1027.86 1027.14 1026.07 1024.45 1024.56 1026.04 1027.53 1030.61 1031.71 1032.36 1032.65 1033.03 1033.28
1020.13 1020.35 1020.49 1020.62 1020.66 1020.65 1020.55 1020.36 1020.50 1020.39 1020.13 1020.25 1021.07 1021.22 1022.22 1024.17 1025.07 1025.84 1026.52 1026.91 1026.72 1026.72 1026.84 1026.71 1026.65 1026.96 1026.72 1026.39 1026.25 1026.15 1026.46 1027.12 1027.53 1027.88 1028.20 1028.24 1027.22 1025.72 1025.25 1026.36 1029.21 1030.59 1032.10 1033.26 1033.68 1033.29 1033.74
1020.10 1020.29 1020.58 1020.73 1020.83 1020.78 1020.76 1020.76 1020.95 1021.08 1021.11 1021.33 1022.19 1022.34 1022.92 1024.60 1027.12 1027.92 1027.78 1028.12 1027.85 1027.55 1026.87 1027.08 1027.25 1027.27 1026.64 1025.98 1025.79 1026.32 1027.31 1028.63 1028.17 1028.13 1028.13 1028.61 1027.75 1027.00 1026.60 1027.09 1029.07 1031.29 1032.89 1033.99 1034.58 1033.68 1033.91
1020.08 1020.30 1020.65 1020.83 1020.90 1020.91 1020.95 1021.03 1021.19 1021.53 1021.47 1021.64 1023.45 1023.44 1023.84 1026.12 1028.68 1029.22 1029.13 1029.29 1029.23 1029.01 1028.51 1028.32 1028.34 1027.67 1026.77 1026.26 1026.69 1027.50 1028.36 1030.09 1030.10 1030.42 1030.42 1029.99 1029.65 1029.01 1028.66 1028.91 1030.62 1032.30 1033.48 1034.34 1034.60 1034.42 1034.00
1020.06 1020.39 1020.66 1020.84 1020.90 1020.99 1021.18 1021.53 1021.72 1021.95 1022.08 1022.22 1024.56 1024.42 1024.29 1026.88 1029.66 1030.29 1030.45 1030.52 1030.35 1030.23 1029.51 1029.58 1029.57 1028.82 1028.07 1027.74 1027.89 1028.62 1029.29 1030.77 1031.56 1032.35 1032.92 1033.18 1032.65 1031.19 1030.57 1030.44 1031.28 1032.65 1033.77 1034.13 1033.86 1033.72 1033.96
1020.11 1020.48 1020.73 1020.86 1020.96 1021.27 1021.44 1021.63 1021.99 1022.29 1022.51 1022.62 1024.35 1025.43 1025.48 1026.85 1030.13 1030.99 1031.43 1031.63 1031.57 1031.37 1031.02 1030.62 1030.39 1030.47 1030.52 1029.74 1029.68 1029.95 1030.24 1031.13 1032.23 1032.24 1033.92 1034.17 1034.75 1034.17 1033.22 1031.93 1032.16 1032.79 1032.86 1033.04 1033.59 1033.59 1033.55
Thickness
5631 5630 5631 5632 5633 5635 5636 5638 5638 5639 5640 5641 5643 5644 5645 5647 5650 5652 5654 5657 5660 5662 5662 5659 5655 5650 5650 5656 5658 5654 5654 5656 5660 5660 5653 5647 5647 5644 5644 5654 5652 5653 5658 5661 5666 5667 5666
5627 5626 5627 5629 5630 5631 5632 5634 5635 5635 5636 5638 5640 5641 5642 5643 5646 5649 5651 5654 5656 5657 5658 5656 5651 5646 5648 5654 5644 5647 5648 5649 5651 5648 5647 5645 5644 5646 5643 5648 5646 5657 5653 5656 5657 5654 5653
5622 5622 5622 5624 5626 5627 5628 5630 5630 5631 5632 5634 5636 5636 5638 5639 5641 5645 5648 5651 5651 5650 5651 5648 5643 5643 5645 5631 5636 5635 5637 5638 5640 5638 5635 5636 5633 5627 5633 5626 5635 5631 5629 5636 5642 5640 5639
5619 5618 5618 5619 5621 5623 5624 5624 5625 5626 5627 5629 5631 5632 5633 5635 5637 5640 5642 5643 5642 5642 5641 5639 5636 5638 5632 5627 5626 5626 5628 5629 5630 5626 5623 5622 5618 5612 5610 5613 5613 5608 5611 5616 5637 5642 5638
5613 5613 5614 5614 5616 5618 5618 5620 5621 5621 5623 5624 5627 5628 5629 5631 5632 5635 5636 5635 5634 5633 5632 5629 5632 5631 5621 5619 5614 5611 5613 5612 5613 5614 5608 5603 5596 5588 5585 5582 5580 5586 5603 5609 5624 5628 5617
5609 5609 5609 5610 5611 5612 5613 5614 5615 5617 5617 5619 5623 5625 5625 5625 5628 5629 5632 5629 5627 5628 5626 5625 5623 5621 5606 5599 5597 5595 5597 5600 5597 5596 5593 5584 5576 5566 5564 5554 5567 5577 5584 5594 5603 5606 5601
5605 5605 5604 5605 5606 5607 5607 5608 5610 5611 5612 5614 5617 5618 5620 5620 5620 5621 5628 5629 5625 5626 5612 5596 5590 5591 5586 5583 5585 5578 5576 5583 5580 5580 5571 5567 5545 5541 5541 5531 5532 5523 5524 5538 5567 5569 5554
5601 5600 5600 5600 5601 5601 5601 5603 5605 5605 5606 5607 5610 5612 5614 5613 5611 5610 5612 5604 5583 5576 5591 5581 5578 5575 5570 5565 5564 5558 5553 5551 5548 5544 5541 5536 5533 5524 5501 5489 5471 5472 5482 5498 5510 5527 5524
5596 5597 5596 5595 5596 5596 5597 5597 5598 5599 5599 5601 5604 5605 5608 5606 5603 5600 5591 5577 5570 5566 5583 5570 5563 5554 5548 5545 5536 5531 5525 5521 5519 5514 5507 5493 5498 5480 5472 5469 5459 5471 5461 5462 5450 5466 5504
5591 5592 5591 5591 5590 5591 5591 5592 5592 5593 5593 5595 5597 5598 5599 5601 5597 5590 5582 5566 5560 5555 5582 5553 5545 5530 5528 5529 5520 5507 5496 5484 5482 5467 5458 5459 5450 5443 5443 5442 5419 5422 5452 5437 5445 5447 5472
5585 5587 5586 5586 5586 5587 5586 5586 5586 5587 5587 5588 5590 5590 5587 5587 5581 5577 5558 5553 5547 5543 5583 5531 5521 5509 5507 5492 5479 5470 5460 5449 5438 5429 5425 5423 5413 5409 5413 5406 5399 5398 5417 5418 5425 5429 5442
5580 5581 5581 5581 5581 5581 5581 5581 5580 5580 5580 5582 5583 5581 5581 5576 5574 5556 5549 5543 5537 5560 5536 5509 5496 5486 5481 5469 5455 5441 5432 5423 5414 5406 5413 5404 5403 5393 5386 5386 5393 5397 5398 5411 5423 5430 5414
5575 5575 5575 5575 5576 5575 5575 5576 5575 5573 5573 5574 5573 5569 5567 5562 5555 5547 5538 5539 5564 5551 5513 5483 5467 5465 5458 5438 5424 5408 5404 5398 5374 5359 5369 5385 5390 5392 5379 5369 5386 5385 5378 5378 5406 5435 5429
5568 5568 5568 5569 5570 5570 5571 5571 5570 5569 5567 5565 5564 5559 5555 5550 5543 5536 5533 5550 5531 5496 5475 5462 5447 5442 5426 5414 5401 5388 5383 5377 5366 5343 5343 5343 5354 5376 5370 5362 5359 5369 5373 5361 5356 5399 5400
5562 5561 5562 5562 5563 5564 5564 5565 5564 5563 5560 5558 5555 5552 5546 5540 5534 5529 5539 5523 5480 5461 5445 5432 5435 5417 5403 5391 5374 5373 5367 5359 5342 5330 5309 5322 5340 5354 5363 5364 5360 5366 5366 5368 5359 5380 5396
5556 5555 5556 5554 5556 5557 5557 5557 5555 5554 5554 5551 5550 5547 5536 5526 5525 5532 5526 5472 5458 5440 5425 5414 5405 5392 5381 5374 5361 5360 5355 5352 5331 5326 5316 5316 5306 5348 5360 5363 5365 5355 5354 5347 5349 5343 5355
5550 5549 5549 5547 5549 5550 5550 5548 5547 5547 5545 5542 5543 5543 5517 5512 5513 5508 5485 5453 5437 5423 5408 5396 5383 5373 5368 5361 5350 5347 5342 5337 5319 5315 5312 5310 5313 5338 5354 5332 5333 5346 5315 5316 5328 5345 5340
5544 5545 5543 5541 5543 5543 5542 5540 5540 5539 5536 5534 5536 5527 5502 5501 5498 5476 5451 5429 5411 5407 5399 5384 5372 5365 5355 5344 5337 5338 5333 5323 5302 5299 5297 5308 5300 5313 5336 5303 5295 5280 5258 5270 5294 5328 5324
5539 5539 5536 5536 5536 5534 5532 5531 5530 5527 5523 5524 5517 5500 5490 5493 5479 5450 5429 5415 5403 5388 5380 5370 5360 5350 5334 5331 5321 5325 5323 5316 5298 5287 5287 5287 5303 5309 5312 5295 5303 5259 5244 5243 5249 5250 5286
5534 5532 5531 5530 5528 5526 5523 5521 5518 5515 5510 5509 5504 5494 5475 5464 5446 5435 5414 5397 5387 5376 5370 5358 5350 5334 5320 5313 5314 5308 5309 5299 5283 5284 5275 5277 5278 5268 5279 5254 5246 5231 5221 5226 5237 5267 5244
5528 5526 5524 5523 5521 5518 5515 5511 5508 5504 5499 5496 5485 5458 5445 5442 5424 5412 5400 5380 5367 5355 5356 5349 5335 5317 5301 5289 5290 5300 5283 5270 5276 5266 5266 5256 5275 5241 5225 5216 5216 5204 5197 5195 5196 5195 5213
5523 5520 5519 5517 5513 5510 5506 5501 5498 5494 5488 5482 5466 5451 5435 5417 5407 5398 5376 5356 5350 5342 5335 5328 5309 5294 5298 5275 5261 5250 5252 5253 5234 5244 5245 5235 5262 5235 5224 5207 5201 5181 5185 5184 5170 5167 5171
5517 5515 5512 5510 5507 5502 5498 5494 5489 5484 5478 5470 5449 5440 5433 5403 5396 5384 5361 5344 5338 5328 5326 5308 5293 5283 5280 5263 5253 5247 5244 5225 5209 5207 5208 5218 5228 5250 5267 5214 5209 5219 5150 5158 5160 5143 5144
5512 5508 5506 5503 5499 5494 5489 5484 5478 5473 5468 5461 5445 5433 5418 5393 5386 5369 5347 5335 5322 5315 5297 5292 5289 5272 5271 5258 5248 5237 5223 5212 5204 5193 5191 5190 5203 5244 5232 5206 5225 5147 5146 5141 5138 5132 5130
5505 5502 5499 5495 5490 5486 5480 5474 5466 5459 5453 5442 5427 5420 5403 5375 5370 5353 5334 5318 5314 5301 5289 5284 5278 5265 5260 5256 5254 5254 5248 5230 5218 5213 5187 5177 5189 5224 5231 5216 5159 5155 5139 5124 5117 5139 5122
5500 5497 5492 5487 5482 5476 5470 5462 5453 5445 5436 5425 5411 5402 5389 5368 5340 5317 5318 5300 5300 5296 5301 5284 5270 5260 5259 5265 5266 5251 5237 5204 5218 5204 5206 5187 5189 5208 5210 5215 5200 5146 5127 5115 5108 5134 5116
5493 5490 5484 5478 5473 5466 5459 5452 5443 5432 5424 5415 5394 5385 5373 5344 5315 5303 5309 5298 5283 5276 5275 5269 5254 5253 5259 5265 5250 5237 5232 5184 5201 5187 5171 5175 5170 5176 5180 5181 5156 5126 5114 5105 5130 5128 5106
5487 5482 5476 5470 5464 5457 5449 5439 5430 5420 5412 5403 5377 5369 5363 5331 5302 5291 5283 5280 5275 5267 5278 5255 5254 5252 5253 5251 5248 5226 5218 5187 5178 5152 5143 5140 5144 5174 5174 5174 5171 5127 5110 5114 5113 5103 5098
5480 5474 5468 5462 5455 5446 5438 5429 5418 5409 5400 5391 5371 5354 5345 5328 5297 5282 5271 5264 5257 5251 5252 5246 5243 5228 5222 5234 5224 5212 5211 5194 5168 5197 5131 5161 5129 5138 5134 5160 5125 5115 5118 5115 5102 5100 5101